Location: Newark
(52.5667°N, 8.8000°W)
Time: 00:02:33
(UTC+00:00)

N. Korean satellite - Pass Details

Date: 30 January 2020
Orbit: 456 x 505 km, 97.2° (Epoch: 20 February)

Event Time Altitude Azimuth Distance (km) Brightness Sun altitude
Rises 06:40:19 0° 12° (NNE) 2,551 10.3 -15.2°
Reaches altitude 10° 06:42:22 10° 12° (NNE) 1,675 9.3 -14.9°
Maximum altitude 06:45:59 82° 285° (WNW) 501 6.5 -14.4°
Drops below altitude 10° 06:49:37 10° 198° (SSW) 1,688 9.2 -13.9°
Sets 06:51:42 0° 197° (SSW) 2,573 10.2 -13.5°
